Location: Copenhagen
(55.6670°N, 12.5830°E)
Time: 05:47:50
(UTC+02:00)

ARIANE 6 FM1 Upper Stage - Visible Passes

Search period start: 18 September 2024 00:00
Search period end: 28 September 2024 00:00
Orbit: 566 x 594 km, 62.0° (Epoch: 17 September)

Date Brightness Start Highest point End Pass type
(mag) Time Alt. Az. Time Alt. Az. Time Alt. Az.
18 Sep 5.5 01:09:06 13° NE 01:09:06 13° NE 01:09:35 10° ENE visible
18 Sep 4.1 02:45:27 38° N 02:45:35 38° N 02:49:42 10° E visible
18 Sep 2.8 04:21:49 15° NW 04:25:24 82° NNE 04:29:47 10° ESE visible
18 Sep 3.8 06:00:45 10° WNW 06:04:24 26° SW 06:08:01 10° S visible
19 Sep 4.0 02:50:55 41° NNE 02:50:55 41° NNE 02:54:39 10° E visible
19 Sep 2.6 04:27:18 21° WNW 04:30:08 77° SW 04:34:30 10° SE visible
19 Sep 4.2 06:05:51 10° WNW 06:08:55 19° WSW 06:11:57 10° SSW visible
20 Sep 4.2 02:56:51 33° ENE 02:56:51 33° ENE 02:59:35 10° E visible
20 Sep 2.7 04:33:16 36° WNW 04:34:49 57° SW 04:39:06 10° SE visible
20 Sep 4.6 06:11:19 10° W 06:13:22 13° WSW 06:15:23 10° SW visible
20 Sep 4.5 20:19:47 10° SSE 20:21:45 14° ESE 20:21:45 14° ESE visible
20 Sep 4.2 21:56:18 10° SW 21:58:10 25° SSW 21:58:10 25° SSW visible
21 Sep 5.0 03:03:22 17° ESE 03:03:22 17° ESE 03:04:28 10° ESE visible
21 Sep 3.2 04:39:49 41° SSW 04:39:49 41° SSW 04:43:33 10° SSE visible
21 Sep 4.1 20:23:18 10° SSE 20:26:24 20° ESE 20:27:54 17° E visible
21 Sep 3.0 22:00:53 10° SW 22:04:17 55° SW 22:04:17 55° SW visible
22 Sep 4.7 04:46:51 15° S 04:46:51 15° S 04:47:49 10° S visible
22 Sep 3.7 20:27:14 10° S 20:30:52 27° SE 20:33:30 15° ENE visible
22 Sep 2.8 22:05:34 10° WSW 22:09:51 78° NW 22:09:51 78° NW visible
22 Sep 5.5 23:45:40 10° W 23:46:13 13° WNW 23:46:13 13° WNW visible
23 Sep 3.2 20:31:24 10° SSW 20:35:22 38° SE 20:38:40 14° ENE visible
23 Sep 3.1 22:10:20 10° WSW 22:14:37 62° NNW 22:15:00 59° N visible
23 Sep 5.4 23:50:32 10° WNW 23:51:20 14° WNW 23:51:20 14° WNW visible
24 Sep 2.9 20:35:45 10° SSW 20:39:55 52° SE 20:43:32 14° ENE visible
24 Sep 3.5 22:15:08 10° W 22:19:21 51° NNW 22:19:51 48° N visible
24 Sep 5.5 23:55:23 10° WNW 23:56:11 15° WNW 23:56:11 15° WNW visible
25 Sep 2.6 20:40:13 10° SW 20:44:30 71° SE 20:48:13 14° ENE visible
25 Sep 3.7 22:19:57 10° W 22:24:07 44° NNW 22:24:32 42° N visible
26 Sep 5.6 00:00:10 10° WNW 00:00:50 14° WNW 00:00:50 14° WNW visible
26 Sep 2.7 20:44:48 10° SW 20:49:07 88° NW 20:52:47 14° NE visible
26 Sep 3.9 22:24:48 10° W 22:28:53 39° NNW 22:29:05 39° N visible
27 Sep 5.7 00:04:55 10° WNW 00:05:22 13° NW 00:05:22 13° NW visible
27 Sep 3.0 20:49:28 10° WSW 20:53:45 69° NNW 20:57:14 16° NE visible
27 Sep 4.1 22:29:37 10° WNW 22:33:32 36° NNW 22:33:32 36° NNW visible
